owner,sensor,date,latitude,longitude,vertical_datum,direction_of_sea_water_velocity,sea_water_speed,upward_sea_water_velocity,qcFlag 
TABS,ioos:station:wmo:42046:1,2004-07-01T00:00:00Z,27.8903,-94.0367,2.0,60.16896463,21.42950536,-99999.0,'11111222,11111222,99999999' 
TABS,ioos:station:wmo:42046:1,2004-07-01T00:30:00Z,27.8903,-94.0367,2.0,68.86415715,21.74267693,-99999.0,'11111222,11111222,99999999' 
TABS,ioos:station:wmo:42046:1,2004-07-01T01:00:00Z,27.8903,-94.0367,2.0,86.36167104,21.90414801,-99999.0,'11111222,11111222,99999999' 
TABS,ioos:station:wmo:42046:1,2004-07-01T01:30:00Z,27.8903,-94.0367,2.0,82.1779788,18.14886498,-99999.0,'11111222,11111222,99999999' 
TABS,ioos:station:wmo:42046:1,2004-07-01T02:00:00Z,27.8903,-94.0367,2.0,79.96804406,15.21259018,-99999.0,'11111222,11111222,99999999' 
TABS,ioos:station:wmo:42046:1,2004-07-01T02:30:00Z,27.8903,-94.0367,2.0,94.40863016,13.26926147,-99999.0,'11111222,11111222,99999999' 
TABS,ioos:station:wmo:42046:1,2004-07-01T03:00:00Z,27.8903,-94.0367,2.0,102.4288193,13.05597947,-99999.0,'11111222,11111222,99999999' 
TABS,ioos:station:wmo:42046:1,2004-07-01T03:30:00Z,27.8903,-94.0367,2.0,97.95258232,8.6734134,-99999.0,'11133222,11111222,99999999' 
TABS,ioos:station:wmo:42046:1,2004-07-01T04:00:00Z,27.8903,-94.0367,2.0,75.43871178,6.881024633,-99999.0,'11133222,11111222,99999999' 
TABS,ioos:station:wmo:42046:1,2004-07-01T04:30:00Z,27.8903,-94.0367,2.0,69.87853127,8.488068096,-99999.0,'11133222,11111222,99999999' 
TABS,ioos:station:wmo:42046:1,2004-07-01T05:00:00Z,27.8903,-94.0367,2.0,53.55237789,6.514176847,-99999.0,'11133222,11111222,99999999' 
TABS,ioos:station:wmo:42046:1,2004-07-01T05:30:00Z,27.8903,-94.0367,2.0,145.4550698,6.507357375,-99999.0,'11133222,11111222,99999999' 
TABS,ioos:station:wmo:42046:1,2004-07-01T06:00:00Z,27.8903,-94.0367,2.0,151.2600615,1.414213562,-99999.0,'11133222,11111222,99999999' 
TABS,ioos:station:wmo:42046:1,2004-07-01T06:30:00Z,27.8903,-94.0367,2.0,14.0364211,1.566780138,-99999.0,'11133222,11111222,99999999' 
TABS,ioos:station:wmo:42046:1,2004-07-01T07:00:00Z,27.8903,-94.0367,2.0,289.5370302,0.657875368,-99999.0,'11133222,11111222,99999999' 
TABS,ioos:station:wmo:42046:1,2004-07-01T07:30:00Z,27.8903,-94.0367,2.0,85.29215876,0.852877482,-99999.0,'11133222,11111222,99999999' 
TABS,ioos:station:wmo:42046:1,2004-07-01T08:00:00Z,27.8903,-94.0367,2.0,20.32329976,1.727541606,-99999.0,'11133222,11111222,99999999' 
TABS,ioos:station:wmo:42046:1,2004-07-01T08:30:00Z,27.8903,-94.0367,2.0,358.7231305,3.140780158,-99999.0,'11133222,11111222,99999999' 
TABS,ioos:station:wmo:42046:1,2004-07-01T09:00:00Z,27.8903,-94.0367,2.0,347.6337422,3.828837944,-99999.0,'11133222,11111222,99999999' 
TABS,ioos:station:wmo:42046:1,2004-07-01T09:30:00Z,27.8903,-94.0367,2.0,297.0155349,3.984796105,-99999.0,'11133222,11111222,99999999' 
TABS,ioos:station:wmo:42046:1,2004-07-01T10:00:00Z,27.8903,-94.0367,2.0,336.0786835,4.266485673,-99999.0,'11133222,11111222,99999999' 
TABS,ioos:station:wmo:42046:1,2004-07-01T10:30:00Z,27.8903,-94.0367,2.0,323.3835446,8.148079528,-99999.0,'11133222,11111222,99999999' 
TABS,ioos:station:wmo:42046:1,2004-07-01T11:00:00Z,27.8903,-94.0367,2.0,339.6350955,10.89073919,-99999.0,'11111222,11111222,99999999' 
TABS,ioos:station:wmo:42046:1,2004-07-01T11:30:00Z,27.8903,-94.0367,2.0,345.1397424,11.97037176,-99999.0,'11111222,11111222,99999999' 
TABS,ioos:station:wmo:42046:1,2004-07-01T12:00:00Z,27.8903,-94.0367,2.0,357.6034885,17.69547965,-99999.0,'11111222,11111222,99999999' 
TABS,ioos:station:wmo:42046:1,2004-07-01T12:30:00Z,27.8903,-94.0367,2.0,6.096431895,14.7836024,-99999.0,'11111222,11111222,99999999' 
TABS,ioos:station:wmo:42046:1,2004-07-01T13:00:00Z,27.8903,-94.0367,2.0,5.027432668,19.85638436,-99999.0,'11111222,11111222,99999999' 
TABS,ioos:station:wmo:42046:1,2004-07-01T13:30:00Z,27.8903,-94.0367,2.0,13.43325918,20.27467632,-99999.0,'11111222,11111222,99999999' 
TABS,ioos:station:wmo:42046:1,2004-07-01T14:00:00Z,27.8903,-94.0367,2.0,17.62630982,21.73017487,-99999.0,'11111222,11111222,99999999' 
TABS,ioos:station:wmo:42046:1,2004-07-01T14:30:00Z,27.8903,-94.0367,2.0,18.10442128,21.36786606,-99999.0,'11111222,11111222,99999999' 
TABS,ioos:station:wmo:42046:1,2004-07-01T15:00:00Z,27.8903,-94.0367,2.0,23.53772803,21.08424293,-99999.0,'11111222,11111222,99999999' 
TABS,ioos:station:wmo:42046:1,2004-07-01T15:30:00Z,27.8903,-94.0367,2.0,36.34793787,24.58302056,-99999.0,'11111222,11111222,99999999' 
TABS,ioos:station:wmo:42046:1,2004-07-01T16:00:00Z,27.8903,-94.0367,2.0,36.0324129,25.72074843,-99999.0,'11111222,11111222,99999999' 
TABS,ioos:station:wmo:42046:1,2004-07-01T16:30:00Z,27.8903,-94.0367,2.0,41.21733928,25.83031746,-99999.0,'11111222,11111222,99999999' 
TABS,ioos:station:wmo:42046:1,2004-07-01T17:00:00Z,27.8903,-94.0367,2.0,47.57299051,29.14096258,-99999.0,'11111222,11111222,99999999' 
TABS,ioos:station:wmo:42046:1,2004-07-01T17:30:00Z,27.8903,-94.0367,2.0,48.68323655,30.05046589,-99999.0,'11111222,11111222,99999999' 
TABS,ioos:station:wmo:42046:1,2004-07-01T18:00:00Z,27.8903,-94.0367,2.0,58.83885895,29.85808098,-99999.0,'11111222,11111222,99999999' 
TABS,ioos:station:wmo:42046:1,2004-07-01T18:30:00Z,27.8903,-94.0367,2.0,59.67259455,31.35015949,-99999.0,'11111222,11111222,99999999' 
TABS,ioos:station:wmo:42046:1,2004-07-01T19:00:00Z,27.8903,-94.0367,2.0,64.04236253,31.64213962,-99999.0,'11111222,11111222,99999999' 
TABS,ioos:station:wmo:42046:1,2004-07-01T19:30:00Z,27.8903,-94.0367,2.0,71.79939414,30.15889421,-99999.0,'11111222,11111222,99999999' 
TABS,ioos:station:wmo:42046:1,2004-07-01T20:00:00Z,27.8903,-94.0367,2.0,66.72019337,26.8456272,-99999.0,'11111222,11111222,99999999' 
TABS,ioos:station:wmo:42046:1,2004-07-01T20:30:00Z,27.8903,-94.0367,2.0,67.87058935,29.83801602,-99999.0,'11111222,11111222,99999999' 
TABS,ioos:station:wmo:42046:1,2004-07-01T21:00:00Z,27.8903,-94.0367,2.0,73.33049707,31.41000159,-99999.0,'11111222,11111222,99999999' 
TABS,ioos:station:wmo:42046:1,2004-07-01T21:30:00Z,27.8903,-94.0367,2.0,80.45401598,27.01407041,-99999.0,'11111222,11111222,99999999' 
TABS,ioos:station:wmo:42046:1,2004-07-01T22:00:00Z,27.8903,-94.0367,2.0,87.72011279,25.64029641,-99999.0,'11111222,11111222,99999999' 
TABS,ioos:station:wmo:42046:1,2004-07-01T22:30:00Z,27.8903,-94.0367,2.0,93.66674912,28.45825715,-99999.0,'11111222,11111222,99999999' 
TABS,ioos:station:wmo:42046:1,2004-07-01T23:00:00Z,27.8903,-94.0367,2.0,107.2762404,23.30126391,-99999.0,'11111222,11111222,99999999' 
TABS,ioos:station:wmo:42046:1,2004-07-01T23:30:00Z,27.8903,-94.0367,2.0,117.5815841,19.91308364,-99999.0,'11111222,11111222,99999999' 
TABS,ioos:station:wmo:42046:1,2004-07-02T00:00:00Z,27.8903,-94.0367,2.0,131.6739275,16.45380503,-99999.0,'11111222,11111222,99999999' 
TABS,ioos:station:wmo:42046:1,2004-07-02T00:30:00Z,27.8903,-94.0367,2.0,129.7424252,15.12500579,-99999.0,'11111222,11111222,99999999' 
TABS,ioos:station:wmo:42046:1,2004-07-02T01:00:00Z,27.8903,-94.0367,2.0,129.2816039,15.68389301,-99999.0,'11111222,11111222,99999999' 
TABS,ioos:station:wmo:42046:1,2004-07-02T01:30:00Z,27.8903,-94.0367,2.0,138.2641709,13.03899153,-99999.0,'11111222,11111222,99999999' 
TABS,ioos:station:wmo:42046:1,2004-07-02T02:00:00Z,27.8903,-94.0367,2.0,133.5562886,13.19172847,-99999.0,'11111222,11111222,99999999' 
TABS,ioos:station:wmo:42046:1,2004-07-02T02:30:00Z,27.8903,-94.0367,2.0,134.9353727,12.5582244,-99999.0,'11111222,11111222,99999999' 
TABS,ioos:station:wmo:42046:1,2004-07-02T03:00:00Z,27.8903,-94.0367,2.0,141.1899763,13.11551753,-99999.0,'11111222,11111222,99999999' 
TABS,ioos:station:wmo:42046:1,2004-07-02T03:30:00Z,27.8903,-94.0367,2.0,166.9042667,10.6366207,-99999.0,'11111222,11111222,99999999' 
TABS,ioos:station:wmo:42046:1,2004-07-02T04:00:00Z,27.8903,-94.0367,2.0,188.3821739,7.06547946,-99999.0,'11133222,11111222,99999999' 
TABS,ioos:station:wmo:42046:1,2004-07-02T04:30:00Z,27.8903,-94.0367,2.0,201.2078261,6.993661416,-99999.0,'11133222,11111222,99999999' 
TABS,ioos:station:wmo:42046:1,2004-07-02T05:00:00Z,27.8903,-94.0367,2.0,211.8025261,7.495291856,-99999.0,'11133222,11111222,99999999' 
TABS,ioos:station:wmo:42046:1,2004-07-02T05:30:00Z,27.8903,-94.0367,2.0,248.1234221,4.267282508,-99999.0,'11133222,11111222,99999999' 
TABS,ioos:station:wmo:42046:1,2004-07-02T06:00:00Z,27.8903,-94.0367,2.0,292.3517379,5.416982555,-99999.0,'11133222,11111222,99999999' 
TABS,ioos:station:wmo:42046:1,2004-07-02T06:30:00Z,27.8903,-94.0367,2.0,311.7213371,5.43948527,-99999.0,'11133222,11111222,99999999' 
TABS,ioos:station:wmo:42046:1,2004-07-02T07:00:00Z,27.8903,-94.0367,2.0,308.76486,6.835736976,-99999.0,'11133222,11111222,99999999' 
TABS,ioos:station:wmo:42046:1,2004-07-02T07:30:00Z,27.8903,-94.0367,2.0,314.9513869,8.280223427,-99999.0,'11133222,11111222,99999999' 
TABS,ioos:station:wmo:42046:1,2004-07-02T08:00:00Z,27.8903,-94.0367,2.0,308.0359712,10.32213641,-99999.0,'11111222,11111222,99999999' 
TABS,ioos:station:wmo:42046:1,2004-07-02T08:30:00Z,27.8903,-94.0367,2.0,305.2423751,11.26454615,-99999.0,'11111222,11111222,99999999' 
TABS,ioos:station:wmo:42046:1,2004-07-02T09:00:00Z,27.8903,-94.0367,2.0,314.5670235,12.15551315,-99999.0,'11111222,11111222,99999999' 
TABS,ioos:station:wmo:42046:1,2004-07-02T09:30:00Z,27.8903,-94.0367,2.0,329.1421542,13.02362469,-99999.0,'11111222,11111222,99999999' 
TABS,ioos:station:wmo:42046:1,2004-07-02T10:00:00Z,27.8903,-94.0367,2.0,331.3523677,15.87315344,-99999.0,'11111222,11111222,99999999' 
TABS,ioos:station:wmo:42046:1,2004-07-02T10:30:00Z,27.8903,-94.0367,2.0,349.2682897,15.35863601,-99999.0,'11111222,11111222,99999999' 
TABS,ioos:station:wmo:42046:1,2004-07-02T11:00:00Z,27.8903,-94.0367,2.0,5.109772779,16.50558996,-99999.0,'11111222,11111222,99999999' 
TABS,ioos:station:wmo:42046:1,2004-07-02T11:30:00Z,27.8903,-94.0367,2.0,6.91674357,19.43141014,-99999.0,'11111222,11111222,99999999' 
TABS,ioos:station:wmo:42046:1,2004-07-02T12:30:00Z,27.8903,-94.0367,2.0,10.32254755,20.4814892,-99999.0,'11111222,11111222,99999999' 
TABS,ioos:station:wmo:42046:1,2004-07-02T13:00:00Z,27.8903,-94.0367,2.0,19.7018896,25.74723286,-99999.0,'11111222,11111222,99999999' 
TABS,ioos:station:wmo:42046:1,2004-07-02T13:30:00Z,27.8903,-94.0367,2.0,15.66806468,24.95733359,-99999.0,'11111222,11111222,99999999' 
TABS,ioos:station:wmo:42046:1,2004-07-02T14:00:00Z,27.8903,-94.0367,2.0,15.17619616,24.14192204,-99999.0,'11111222,11111222,99999999' 
TABS,ioos:station:wmo:42046:1,2004-07-02T14:30:00Z,27.8903,-94.0367,2.0,16.67481116,26.76550018,-99999.0,'11111222,11111222,99999999' 
TABS,ioos:station:wmo:42046:1,2004-07-02T15:00:00Z,27.8903,-94.0367,2.0,17.83258393,27.36470172,-99999.0,'11111222,11111222,99999999' 
TABS,ioos:station:wmo:42046:1,2004-07-02T15:30:00Z,27.8903,-94.0367,2.0,25.63612017,32.82084856,-99999.0,'11111222,11111222,99999999' 
TABS,ioos:station:wmo:42046:1,2004-07-02T16:00:00Z,27.8903,-94.0367,2.0,32.10639134,28.29774726,-99999.0,'11111222,11111222,99999999' 
TABS,ioos:station:wmo:42046:1,2004-07-02T16:30:00Z,27.8903,-94.0367,2.0,31.15803411,32.39283871,-99999.0,'11111222,11111222,99999999' 
TABS,ioos:station:wmo:42046:1,2004-07-02T17:00:00Z,27.8903,-94.0367,2.0,39.08724564,28.89763485,-99999.0,'11111222,11111222,99999999' 
TABS,ioos:station:wmo:42046:1,2004-07-02T17:30:00Z,27.8903,-94.0367,2.0,42.68353763,28.68955559,-99999.0,'11111222,11111222,99999999' 
TABS,ioos:station:wmo:42046:1,2004-07-02T18:00:00Z,27.8903,-94.0367,2.0,49.34387734,28.2877447,-99999.0,'11111222,11111222,99999999' 
TABS,ioos:station:wmo:42046:1,2004-07-02T18:30:00Z,27.8903,-94.0367,2.0,53.10470874,26.98400267,-99999.0,'11111222,11111222,99999999' 
TABS,ioos:station:wmo:42046:1,2004-07-02T19:00:00Z,27.8903,-94.0367,2.0,61.89284903,24.26118093,-99999.0,'11111222,11111222,99999999' 
TABS,ioos:station:wmo:42046:1,2004-07-02T19:30:00Z,27.8903,-94.0367,2.0,65.54475536,20.89456628,-99999.0,'11111222,11111222,99999999' 
TABS,ioos:station:wmo:42046:1,2004-07-02T20:00:00Z,27.8903,-94.0367,2.0,75.20172325,20.24138829,-99999.0,'11111222,11111222,99999999' 
TABS,ioos:station:wmo:42046:1,2004-07-02T20:30:00Z,27.8903,-94.0367,2.0,78.35617461,24.2285988,-99999.0,'11111222,11111222,99999999' 
TABS,ioos:station:wmo:42046:1,2004-07-02T21:00:00Z,27.8903,-94.0367,2.0,93.8234787,20.24506113,-99999.0,'11111222,11111222,99999999' 
TABS,ioos:station:wmo:42046:1,2004-07-02T21:30:00Z,27.8903,-94.0367,2.0,118.5483106,14.73109636,-99999.0,'11111222,11111222,99999999' 
TABS,ioos:station:wmo:42046:1,2004-07-02T22:00:00Z,27.8903,-94.0367,2.0,119.9865641,19.10772095,-99999.0,'11111222,11111222,99999999' 
TABS,ioos:station:wmo:42046:1,2004-07-02T22:30:00Z,27.8903,-94.0367,2.0,119.1401116,19.50926959,-99999.0,'11111222,11111222,99999999' 
TABS,ioos:station:wmo:42046:1,2004-07-02T23:00:00Z,27.8903,-94.0367,2.0,128.8898004,18.66760027,-99999.0,'11111222,11111222,99999999' 
TABS,ioos:station:wmo:42046:1,2004-07-02T23:30:00Z,27.8903,-94.0367,2.0,133.7069376,15.35519782,-99999.0,'11111222,11111222,99999999' 
TABS,ioos:station:wmo:42046:1,2004-07-03T00:00:00Z,27.8903,-94.0367,2.0,149.0530051,17.44312185,-99999.0,'11111222,11111222,99999999' 
TABS,ioos:station:wmo:42046:1,2004-07-03T00:30:00Z,27.8903,-94.0367,2.0,156.9039415,16.85058159,-99999.0,'11111222,11111222,99999999' 
TABS,ioos:station:wmo:42046:1,2004-07-03T01:00:00Z,27.8903,-94.0367,2.0,178.3922581,17.46687436,-99999.0,'11111222,11111222,99999999' 
TABS,ioos:station:wmo:42046:1,2004-07-03T01:30:00Z,27.8903,-94.0367,2.0,182.929281,16.63173473,-99999.0,'11111222,11111222,99999999' 
TABS,ioos:station:wmo:42046:1,2004-07-03T02:00:00Z,27.8903,-94.0367,2.0,193.5650877,15.04984385,-99999.0,'11111222,11111222,99999999' 
TABS,ioos:station:wmo:42046:1,2004-07-03T02:30:00Z,27.8903,-94.0367,2.0,199.4071963,16.58221035,-99999.0,'11111222,11111222,99999999' 
TABS,ioos:station:wmo:42046:1,2004-07-03T03:00:00Z,27.8903,-94.0367,2.0,206.023611,14.67820493,-99999.0,'11111222,11111222,99999999' 
TABS,ioos:station:wmo:42046:1,2004-07-03T03:30:00Z,27.8903,-94.0367,2.0,223.3156468,18.52712876,-99999.0,'11111222,11111222,99999999' 
TABS,ioos:station:wmo:42046:1,2004-07-03T04:00:00Z,27.8903,-94.0367,2.0,229.4258769,20.34048672,-99999.0,'11111222,11111222,99999999' 
TABS,ioos:station:wmo:42046:1,2004-07-03T04:30:00Z,27.8903,-94.0367,2.0,230.516452,19.34411797,-99999.0,'11111222,11111222,99999999' 
TABS,ioos:station:wmo:42046:1,2004-07-03T05:00:00Z,27.8903,-94.0367,2.0,236.4301944,18.44659589,-99999.0,'11111222,11111222,99999999' 
TABS,ioos:station:wmo:42046:1,2004-07-03T05:30:00Z,27.8903,-94.0367,2.0,239.2693103,18.10182587,-99999.0,'11111222,11111222,99999999' 
TABS,ioos:station:wmo:42046:1,2004-07-03T06:00:00Z,27.8903,-94.0367,2.0,253.6763411,17.07841035,-99999.0,'11111222,11111222,99999999' 
TABS,ioos:station:wmo:42046:1,2004-07-03T06:30:00Z,27.8903,-94.0367,2.0,275.4496343,15.26900455,-99999.0,'11111222,11111222,99999999' 
TABS,ioos:station:wmo:42046:1,2004-07-03T07:00:00Z,27.8903,-94.0367,2.0,288.1559515,15.56491568,-99999.0,'11111222,11111222,99999999' 
TABS,ioos:station:wmo:42046:1,2004-07-03T07:30:00Z,27.8903,-94.0367,2.0,290.1766774,17.48282014,-99999.0,'11111222,11111222,99999999' 
TABS,ioos:station:wmo:42046:1,2004-07-03T08:00:00Z,27.8903,-94.0367,2.0,300.8407615,19.91617684,-99999.0,'11111222,11111222,99999999' 
TABS,ioos:station:wmo:42046:1,2004-07-03T08:30:00Z,27.8903,-94.0367,2.0,306.7715319,20.89803101,-99999.0,'11111222,11111222,99999999' 
TABS,ioos:station:wmo:42046:1,2004-07-03T09:00:00Z,27.8903,-94.0367,2.0,321.4395057,21.68944444,-99999.0,'11111222,11111222,99999999' 
TABS,ioos:station:wmo:42046:1,2004-07-03T09:30:00Z,27.8903,-94.0367,2.0,329.8964741,22.96796247,-99999.0,'11111222,11111222,99999999' 
TABS,ioos:station:wmo:42046:1,2004-07-03T10:00:00Z,27.8903,-94.0367,2.0,344.5445752,23.30269727,-99999.0,'11111222,11111222,99999999' 
TABS,ioos:station:wmo:42046:1,2004-07-03T10:30:00Z,27.8903,-94.0367,2.0,346.2945235,21.86252501,-99999.0,'11111222,11111222,99999999' 
TABS,ioos:station:wmo:42046:1,2004-07-03T11:00:00Z,27.8903,-94.0367,2.0,351.4446722,20.56888913,-99999.0,'11111222,11111222,99999999' 
TABS,ioos:station:wmo:42046:1,2004-07-03T11:30:00Z,27.8903,-94.0367,2.0,5.667676495,22.47988657,-99999.0,'11111222,11111222,99999999' 
TABS,ioos:station:wmo:42046:1,2004-07-03T12:00:00Z,27.8903,-94.0367,2.0,14.4550666,20.91197982,-99999.0,'11111222,11111222,99999999' 
TABS,ioos:station:wmo:42046:1,2004-07-03T12:30:00Z,27.8903,-94.0367,2.0,19.33102444,19.21318558,-99999.0,'11111222,11111222,99999999' 
TABS,ioos:station:wmo:42046:1,2004-07-03T13:00:00Z,27.8903,-94.0367,2.0,27.33301005,22.6936555,-99999.0,'11111222,11111222,99999999' 
TABS,ioos:station:wmo:42046:1,2004-07-03T13:30:00Z,27.8903,-94.0367,2.0,42.90596693,26.70404464,-99999.0,'11111222,11111222,99999999' 
TABS,ioos:station:wmo:42046:1,2004-07-03T14:00:00Z,27.8903,-94.0367,2.0,43.42755642,26.02425984,-99999.0,'11111222,11111222,99999999' 
TABS,ioos:station:wmo:42046:1,2004-07-03T14:30:00Z,27.8903,-94.0367,2.0,54.02240352,29.66959723,-99999.0,'11111222,11111222,99999999' 
TABS,ioos:station:wmo:42046:1,2004-07-03T15:00:00Z,27.8903,-94.0367,2.0,59.39344115,31.09158246,-99999.0,'11111222,11111222,99999999' 
TABS,ioos:station:wmo:42046:1,2004-07-03T15:30:00Z,27.8903,-94.0367,2.0,60.11314942,29.01925568,-99999.0,'11111222,11111222,99999999' 
TABS,ioos:station:wmo:42046:1,2004-07-03T16:00:00Z,27.8903,-94.0367,2.0,65.98384983,28.15759223,-99999.0,'11111222,11111222,99999999' 
TABS,ioos:station:wmo:42046:1,2004-07-03T16:30:00Z,27.8903,-94.0367,2.0,73.13064241,28.70522252,-99999.0,'11111222,11111222,99999999' 
TABS,ioos:station:wmo:42046:1,2004-07-03T17:00:00Z,27.8903,-94.0367,2.0,82.57037414,27.99503527,-99999.0,'11111222,11111222,99999999' 
TABS,ioos:station:wmo:42046:1,2004-07-03T17:30:00Z,27.8903,-94.0367,2.0,92.86141348,29.0462149,-99999.0,'11111222,11111222,99999999' 
TABS,ioos:station:wmo:42046:1,2004-07-03T18:00:00Z,27.8903,-94.0367,2.0,96.1737939,29.66203297,-99999.0,'11111222,11111222,99999999' 
TABS,ioos:station:wmo:42046:1,2004-07-03T18:30:00Z,27.8903,-94.0367,2.0,110.408568,29.56586207,-99999.0,'11111222,11111222,99999999' 
TABS,ioos:station:wmo:42046:1,2004-07-03T19:00:00Z,27.8903,-94.0367,2.0,109.5814723,31.44882351,-99999.0,'11111222,11111222,99999999' 
TABS,ioos:station:wmo:42046:1,2004-07-03T19:30:00Z,27.8903,-94.0367,2.0,128.289277,29.71111745,-99999.0,'11111222,11111222,99999999' 
TABS,ioos:station:wmo:42046:1,2004-07-03T20:00:00Z,27.8903,-94.0367,2.0,135.7818614,31.08730931,-99999.0,'11111222,11111222,99999999' 
TABS,ioos:station:wmo:42046:1,2004-07-03T20:30:00Z,27.8903,-94.0367,2.0,147.5179462,28.67605447,-99999.0,'11111222,11111222,99999999' 
TABS,ioos:station:wmo:42046:1,2004-07-03T21:00:00Z,27.8903,-94.0367,2.0,159.0640542,27.9020519,-99999.0,'11111222,11111222,99999999' 
TABS,ioos:station:wmo:42046:1,2004-07-03T21:30:00Z,27.8903,-94.0367,2.0,168.0997644,25.89654803,-99999.0,'11111222,11111222,99999999' 
TABS,ioos:station:wmo:42046:1,2004-07-03T22:00:00Z,27.8903,-94.0367,2.0,168.7783612,26.66986502,-99999.0,'11111222,11111222,99999999' 
TABS,ioos:station:wmo:42046:1,2004-07-03T22:30:00Z,27.8903,-94.0367,2.0,176.2587604,21.91670139,-99999.0,'11111222,11111222,99999999' 
TABS,ioos:station:wmo:42046:1,2004-07-03T23:00:00Z,27.8903,-94.0367,2.0,174.1546488,22.87895321,-99999.0,'11111222,11111222,99999999' 
TABS,ioos:station:wmo:42046:1,2004-07-03T23:30:00Z,27.8903,-94.0367,2.0,181.0715652,22.45392839,-99999.0,'11111222,11111222,99999999' 
TABS,ioos:station:wmo:42046:1,2004-07-04T00:00:00Z,27.8903,-94.0367,2.0,186.9803391,23.61504817,-99999.0,'11111222,11111222,99999999' 
TABS,ioos:station:wmo:42046:1,2004-07-04T00:30:00Z,27.8903,-94.0367,2.0,192.0419862,21.32937177,-99999.0,'11111222,11111222,99999999' 
TABS,ioos:station:wmo:42046:1,2004-07-04T01:00:00Z,27.8903,-94.0367,2.0,200.3635282,27.903937,-99999.0,'11111222,11111222,99999999' 
TABS,ioos:station:wmo:42046:1,2004-07-04T01:30:00Z,27.8903,-94.0367,2.0,208.0248792,24.92236145,-99999.0,'11111222,11111222,99999999' 
TABS,ioos:station:wmo:42046:1,2004-07-04T02:00:00Z,27.8903,-94.0367,2.0,223.1745426,24.42171575,-99999.0,'11111222,11111222,99999999' 
TABS,ioos:station:wmo:42046:1,2004-07-04T02:30:00Z,27.8903,-94.0367,2.0,229.3274183,22.77012297,-99999.0,'11111222,11111222,99999999' 
TABS,ioos:station:wmo:42046:1,2004-07-04T03:00:00Z,27.8903,-94.0367,2.0,247.6194964,20.95864499,-99999.0,'11111222,11111222,99999999' 
TABS,ioos:station:wmo:42046:1,2004-07-04T03:30:00Z,27.8903,-94.0367,2.0,258.2345088,21.97158392,-99999.0,'11111222,11111222,99999999' 
TABS,ioos:station:wmo:42046:1,2004-07-04T04:00:00Z,27.8903,-94.0367,2.0,277.2551279,20.27228897,-99999.0,'11111222,11111222,99999999' 
TABS,ioos:station:wmo:42046:1,2004-07-04T04:30:00Z,27.8903,-94.0367,2.0,284.9392948,24.6325496,-99999.0,'11111222,11111222,99999999' 
TABS,ioos:station:wmo:42046:1,2004-07-04T05:00:00Z,27.8903,-94.0367,2.0,285.4279941,24.47178375,-99999.0,'11111222,11111222,99999999' 
TABS,ioos:station:wmo:42046:1,2004-07-04T05:30:00Z,27.8903,-94.0367,2.0,299.1151289,23.1214727,-99999.0,'11111222,11111222,99999999' 
TABS,ioos:station:wmo:42046:1,2004-07-04T06:00:00Z,27.8903,-94.0367,2.0,316.6896033,23.26685411,-99999.0,'11111222,11111222,99999999' 
TABS,ioos:station:wmo:42046:1,2004-07-04T06:30:00Z,27.8903,-94.0367,2.0,330.4967692,23.55440511,-99999.0,'11111222,11111222,99999999' 
TABS,ioos:station:wmo:42046:1,2004-07-04T07:00:00Z,27.8903,-94.0367,2.0,348.2474526,25.62726088,-99999.0,'11111222,11111222,99999999' 
TABS,ioos:station:wmo:42046:1,2004-07-04T07:30:00Z,27.8903,-94.0367,2.0,355.0245571,25.13471703,-99999.0,'11111222,11111222,99999999' 
TABS,ioos:station:wmo:42046:1,2004-07-04T08:00:00Z,27.8903,-94.0367,2.0,1.65317315,24.96038662,-99999.0,'11111222,11111222,99999999' 
TABS,ioos:station:wmo:42046:1,2004-07-04T08:30:00Z,27.8903,-94.0367,2.0,9.544713705,26.35482878,-99999.0,'11111222,11111222,99999999' 
TABS,ioos:station:wmo:42046:1,2004-07-04T09:00:00Z,27.8903,-94.0367,2.0,16.56881467,24.37195314,-99999.0,'11111222,11111222,99999999' 
TABS,ioos:station:wmo:42046:1,2004-07-04T09:30:00Z,27.8903,-94.0367,2.0,21.17385744,23.56058149,-99999.0,'11111222,11111222,99999999' 
TABS,ioos:station:wmo:42046:1,2004-07-04T10:00:00Z,27.8903,-94.0367,2.0,24.16901259,27.06219688,-99999.0,'11111222,11111222,99999999' 
TABS,ioos:station:wmo:42046:1,2004-07-04T10:30:00Z,27.8903,-94.0367,2.0,29.1572666,25.51280659,-99999.0,'11111222,11111222,99999999' 
TABS,ioos:station:wmo:42046:1,2004-07-04T11:00:00Z,27.8903,-94.0367,2.0,30.18667575,28.32045197,-99999.0,'11111222,11111222,99999999' 
TABS,ioos:station:wmo:42046:1,2004-07-04T11:30:00Z,27.8903,-94.0367,2.0,38.57732111,23.83057909,-99999.0,'11111222,11111222,99999999' 
TABS,ioos:station:wmo:42046:1,2004-07-04T12:00:00Z,27.8903,-94.0367,2.0,41.82623304,26.43684739,-99999.0,'11111222,11111222,99999999' 
TABS,ioos:station:wmo:42046:1,2004-07-04T12:30:00Z,27.8903,-94.0367,2.0,45.44302243,25.61217289,-99999.0,'11111222,11111222,99999999' 
TABS,ioos:station:wmo:42046:1,2004-07-04T13:00:00Z,27.8903,-94.0367,2.0,47.58659518,29.77124116,-99999.0,'11111222,11111222,99999999' 
TABS,ioos:station:wmo:42046:1,2004-07-04T13:30:00Z,27.8903,-94.0367,2.0,52.50797971,34.25601991,-99999.0,'11111222,11111222,99999999' 
TABS,ioos:station:wmo:42046:1,2004-07-04T14:00:00Z,27.8903,-94.0367,2.0,56.94199225,33.69453962,-99999.0,'11111222,11111222,99999999' 
TABS,ioos:station:wmo:42046:1,2004-07-04T14:30:00Z,27.8903,-94.0367,2.0,59.26788604,32.24885734,-99999.0,'11111222,11111222,99999999' 
TABS,ioos:station:wmo:42046:1,2004-07-04T15:00:00Z,27.8903,-94.0367,2.0,66.65513086,30.33319799,-99999.0,'11111222,11111222,99999999' 
TABS,ioos:station:wmo:42046:1,2004-07-04T15:30:00Z,27.8903,-94.0367,2.0,69.99355496,27.21214802,-99999.0,'11111222,11111222,99999999' 
TABS,ioos:station:wmo:42046:1,2004-07-04T16:00:00Z,27.8903,-94.0367,2.0,80.05945021,22.65003753,-99999.0,'11111222,11111222,99999999' 
TABS,ioos:station:wmo:42046:1,2004-07-04T16:30:00Z,27.8903,-94.0367,2.0,88.04860341,23.49362467,-99999.0,'11111222,11111222,99999999' 